EN

Hourly Weather Bolshie Lupyazhi

Today, 23 October, Friday

Time Temperature Precipitation Wind Pressure Humidity
00:00 +5°C° 0.5 mm 5 mps 748 mmHg 91%
01:00 +6°C° 0 mm 5 mps 748 mmHg 91%
02:00 +6°C° 0 mm 5 mps 747 mmHg 90%
03:00 +6°C° 0 mm 5 mps 747 mmHg 89%
04:00 +7°C° 0.4 mm 5 mps 746 mmHg 90%
05:00 +7°C° 0.4 mm 4 mps 745 mmHg 91%
06:00 +7°C° 0.4 mm 4 mps 745 mmHg 92%
07:00 +8°C° 0.2 mm 4 mps 745 mmHg 90%
08:00 +9°C° 0.2 mm 5 mps 745 mmHg 89%
09:00 +10°C° 0.2 mm 5 mps 745 mmHg 87%
10:00 +12°C° 0 mm 5 mps 745 mmHg 83%
11:00 +12°C° 0 mm 5 mps 745 mmHg 79%
12:00 +13°C° 0 mm 5 mps 746 mmHg 75%
13:00 +13°C° 0 mm 5 mps 746 mmHg 76%
14:00 +13°C° 0 mm 6 mps 746 mmHg 77%
15:00 +11°C° 0 mm 6 mps 746 mmHg 77%
16:00 +12°C° 0 mm 5 mps 746 mmHg 79%
17:00 +11°C° 0 mm 4 mps 746 mmHg 81%
18:00 +11°C° 0 mm 4 mps 746 mmHg 83%
19:00 +10°C° 0.4 mm 3 mps 746 mmHg 87%
20:00 +10°C° 0.4 mm 3 mps 745 mmHg 90%
21:00 +10°C° 0.4 mm 3 mps 745 mmHg 94%
22:00 +11°C° 1.1 mm 4 mps 744 mmHg 93%
23:00 +10°C° 1.1 mm 5 mps 744 mmHg 92%

Tomorrow, 24 October, Saturday

Time Temperature Precipitation Wind Pressure Humidity
00:00 +11°C° 1.1 mm 6 mps 743 mmHg 92%
01:00 +10°C° 0.3 mm 5 mps 743 mmHg 91%
02:00 +10°C° 0.3 mm 5 mps 743 mmHg 90%
03:00 +10°C° 0.3 mm 5 mps 743 mmHg 90%
04:00 +9°C° 0 mm 5 mps 744 mmHg 90%
05:00 +10°C° 0 mm 4 mps 744 mmHg 91%
06:00 +8°C° 0 mm 4 mps 744 mmHg 92%
07:00 +8°C° 0 mm 4 mps 745 mmHg 89%
08:00 +8°C° 0 mm 4 mps 745 mmHg 87%
09:00 +9°C° 0 mm 5 mps 746 mmHg 85%
10:00 +10°C° 0 mm 4 mps 746 mmHg 79%
11:00 +11°C° 0 mm 4 mps 747 mmHg 74%
12:00 +12°C° 0 mm 4 mps 747 mmHg 68%
13:00 +11°C° 0 mm 4 mps 747 mmHg 69%
14:00 +11°C° 0 mm 3 mps 748 mmHg 70%
15:00 +11°C° 0 mm 3 mps 748 mmHg 70%
16:00 +10°C° 0 mm 3 mps 748 mmHg 74%
17:00 +10°C° 0 mm 2 mps 748 mmHg 77%
18:00 +9°C° 0 mm 2 mps 748 mmHg 80%
19:00 +9°C° 0 mm 2 mps 748 mmHg 81%
20:00 +9°C° 0 mm 2 mps 748 mmHg 82%
21:00 +9°C° 0 mm 2 mps 749 mmHg 82%
22:00 +9°C° 0 mm 2 mps 749 mmHg 83%
23:00 +8°C° 0 mm 2 mps 748 mmHg 84%

Day after tomorrow, 25 October, Sunday

Time Temperature Precipitation Wind Pressure Humidity
00:00 +8°C° 0 mm 2 mps 748 mmHg 85%
01:00 +8°C° 0 mm 2 mps 748 mmHg 86%
02:00 +8°C° 0 mm 2 mps 748 mmHg 87%
03:00 +8°C° 0 mm 1 mps 748 mmHg 88%
04:00 +8°C° 0.4 mm 1 mps 748 mmHg 89%
05:00 +8°C° 0.4 mm 1 mps 748 mmHg 91%
06:00 +8°C° 0.4 mm 1 mps 747 mmHg 93%
07:00 +8°C° 0.5 mm 1 mps 747 mmHg 93%
08:00 +8°C° 0.5 mm 1 mps 747 mmHg 94%
09:00 +8°C° 0.5 mm 1 mps 747 mmHg 95%
10:00 +9°C° 0.2 mm 1 mps 747 mmHg 92%
11:00 +8°C° 0.2 mm 2 mps 748 mmHg 90%
12:00 +8°C° 0.2 mm 3 mps 748 mmHg 87%
13:00 +8°C° 0 mm 3 mps 748 mmHg 86%
14:00 +8°C° 0 mm 2 mps 748 mmHg 85%
15:00 +9°C° 0 mm 2 mps 749 mmHg 83%
16:00 +8°C° 0 mm 2 mps 749 mmHg 86%
17:00 +8°C° 0 mm 2 mps 749 mmHg 88%
18:00 +7°C° 0 mm 2 mps 750 mmHg 90%
19:00 +7°C° 0 mm 2 mps 750 mmHg 91%
20:00 +7°C° 0 mm 2 mps 751 mmHg 92%
21:00 +7°C° 0 mm 2 mps 751 mmHg 93%
22:00 +7°C° 0 mm 2 mps 752 mmHg 93%
23:00 +7°C° 0 mm 3 mps 752 mmHg 93%

26 October, Monday

Time Temperature Precipitation Wind Pressure Humidity
00:00 +7°C° 0 mm 3 mps 752 mmHg 93%
01:00 +7°C° 0 mm 3 mps 753 mmHg 91%
02:00 +7°C° 0 mm 3 mps 753 mmHg 89%
03:00 +7°C° 0 mm 3 mps 754 mmHg 87%
04:00 +5°C° 0 mm 3 mps 754 mmHg 89%
05:00 +4°C° 0 mm 3 mps 755 mmHg 90%
06:00 +5°C° 0 mm 2 mps 756 mmHg 92%
07:00 +4°C° 0 mm 3 mps 756 mmHg 90%
08:00 +4°C° 0 mm 3 mps 757 mmHg 88%
09:00 +4°C° 0 mm 3 mps 757 mmHg 86%
10:00 +5°C° 0 mm 3 mps 758 mmHg 80%
11:00 +5°C° 0 mm 3 mps 758 mmHg 73%
12:00 +7°C° 0 mm 2 mps 758 mmHg 66%
13:00 +7°C° 0 mm 2 mps 759 mmHg 65%
14:00 +8°C° 0 mm 2 mps 759 mmHg 64%
15:00 +8°C° 0 mm 2 mps 759 mmHg 62%
16:00 +7°C° 0 mm 2 mps 759 mmHg 67%
17:00 +5°C° 0 mm 2 mps 760 mmHg 72%
18:00 +5°C° 0 mm 1 mps 760 mmHg 78%
19:00 +5°C° 0 mm 1 mps 760 mmHg 80%
20:00 +4°C° 0 mm 1 mps 761 mmHg 81%
21:00 +4°C° 0 mm 1 mps 761 mmHg 83%
22:00 +4°C° 0 mm 1 mps 761 mmHg 84%
23:00 +3°C° 0 mm 1 mps 761 mmHg 86%

27 October, Tuesday

Time Temperature Precipitation Wind Pressure Humidity
00:00 +3°C° 0 mm 1 mps 762 mmHg 87%
01:00 +3°C° 0 mm 1 mps 762 mmHg 87%
02:00 +3°C° 0 mm 1 mps 762 mmHg 88%
03:00 +2°C° 0 mm 1 mps 762 mmHg 89%
04:00 +2°C° 0 mm 1 mps 762 mmHg 89%
05:00 +2°C° 0 mm 1 mps 762 mmHg 89%
06:00 +2°C° 0 mm 1 mps 763 mmHg 89%
07:00 +2°C° 0 mm 1 mps 763 mmHg 86%
08:00 +2°C° 0 mm 2 mps 763 mmHg 83%
09:00 +2°C° 0 mm 2 mps 763 mmHg 80%
10:00 +4°C° 0 mm 2 mps 763 mmHg 75%
11:00 +5°C° 0 mm 2 mps 763 mmHg 69%
12:00 +6°C° 0 mm 2 mps 763 mmHg 64%
13:00 +7°C° 0 mm 2 mps 763 mmHg 63%
14:00 +7°C° 0 mm 2 mps 763 mmHg 62%
15:00 +7°C° 0 mm 2 mps 763 mmHg 62%
16:00 +6°C° 0 mm 2 mps 762 mmHg 67%
17:00 +5°C° 0 mm 2 mps 762 mmHg 72%
18:00 +4°C° 0 mm 2 mps 762 mmHg 78%
19:00 +3°C° 0 mm 2 mps 762 mmHg 79%
20:00 +3°C° 0 mm 2 mps 762 mmHg 80%
21:00 +2°C° 0 mm 3 mps 762 mmHg 81%
22:00 +2°C° 0 mm 3 mps 762 mmHg 81%
23:00 +2°C° 0 mm 3 mps 762 mmHg 80%

28 October, Wednesday

Time Temperature Precipitation Wind Pressure Humidity
00:00 +2°C° 0 mm 3 mps 761 mmHg 80%
01:00 +2°C° 0 mm 3 mps 761 mmHg 80%
02:00 +2°C° 0 mm 3 mps 761 mmHg 80%
03:00 +2°C° 0 mm 3 mps 761 mmHg 79%
04:00 +2°C° 0 mm 3 mps 761 mmHg 79%
05:00 +2°C° 0 mm 3 mps 761 mmHg 79%
06:00 +2°C° 0 mm 3 mps 760 mmHg 79%
07:00 +3°C° 0 mm 3 mps 760 mmHg 77%
08:00 +3°C° 0 mm 3 mps 760 mmHg 75%
09:00 +4°C° 0 mm 4 mps 760 mmHg 73%
10:00 +5°C° 0 mm 4 mps 760 mmHg 71%
11:00 +6°C° 0 mm 4 mps 760 mmHg 68%
12:00 +7°C° 0 mm 4 mps 759 mmHg 65%
13:00 +7°C° 0 mm 4 mps 759 mmHg 64%
14:00 +8°C° 0 mm 4 mps 759 mmHg 62%
15:00 +8°C° 0 mm 4 mps 759 mmHg 60%
16:00 +7°C° 0 mm 4 mps 759 mmHg 62%
17:00 +7°C° 0 mm 3 mps 759 mmHg 64%
18:00 +5°C° 0 mm 3 mps 758 mmHg 66%
19:00 +5°C° 0 mm 3 mps 758 mmHg 65%
20:00 +5°C° 0 mm 4 mps 758 mmHg 64%
21:00 +5°C° 0 mm 4 mps 758 mmHg 63%
22:00 +5°C° 0 mm 4 mps 758 mmHg 62%
23:00 +5°C° 0 mm 4 mps 758 mmHg 61%
Show more